TimeEDT,TemperatureF,Dew PointF,Humidity,Sea Level PressureIn,VisibilityMPH,Wind Direction,Wind SpeedMPH,Gust SpeedMPH,PrecipitationIn,Events,Conditions,WindDirDegrees,DateUTC
12:53 AM,79.0,71.1,77,30.09,10.0,East,13.8,-,N/A,,Scattered Clouds,90,2012-05-12 04:53:00
1:53 AM,79.0,71.1,77,30.07,10.0,East,13.8,-,N/A,,Scattered Clouds,90,2012-05-12 05:53:00
2:53 AM,79.0,71.1,77,30.06,10.0,East,15.0,-,N/A,,Mostly Cloudy,90,2012-05-12 06:53:00
3:53 AM,78.1,71.1,79,30.06,10.0,East,12.7,-,N/A,,Scattered Clouds,90,2012-05-12 07:53:00
4:53 AM,78.1,71.1,79,30.07,10.0,East,17.3,21.9,N/A,,Mostly Cloudy,100,2012-05-12 08:53:00
5:53 AM,78.1,71.1,79,30.09,10.0,East,12.7,-,N/A,,Mostly Cloudy,100,2012-05-12 09:53:00
6:53 AM,78.1,71.1,79,30.11,10.0,East,13.8,-,N/A,,Scattered Clouds,90,2012-05-12 10:53:00
7:53 AM,79.0,71.1,77,30.13,10.0,East,13.8,-,N/A,,Overcast,80,2012-05-12 11:53:00
8:53 AM,80.1,71.1,74,30.14,10.0,East,17.3,24.2,N/A,,Scattered Clouds,90,2012-05-12 12:53:00
9:28 AM,80.6,71.6,74,30.15,10.0,East,18.4,24.2,N/A,,Mostly Cloudy,90,2012-05-12 13:28:00
9:53 AM,81.0,70.0,69,30.15,10.0,East,20.7,-,N/A,,Mostly Cloudy,80,2012-05-12 13:53:00
10:31 AM,82.4,69.8,66,30.16,10.0,East,21.9,27.6,N/A,,Scattered Clouds,100,2012-05-12 14:31:00
10:53 AM,82.0,70.0,67,30.16,10.0,East,18.4,24.2,N/A,,Scattered Clouds,100,2012-05-12 14:53:00
11:53 AM,82.0,69.1,65,30.15,10.0,East,17.3,25.3,N/A,,Scattered Clouds,100,2012-05-12 15:53:00
12:43 PM,82.4,69.8,66,30.16,10.0,East,17.3,25.3,N/A,,Mostly Cloudy,80,2012-05-12 16:43:00
12:53 PM,81.0,68.0,65,30.16,10.0,ENE,17.3,-,N/A,,Mostly Cloudy,70,2012-05-12 16:53:00
1:53 PM,81.0,69.1,67,30.15,10.0,East,15.0,25.3,N/A,,Overcast,80,2012-05-12 17:53:00
2:43 PM,82.4,68.0,62,30.14,10.0,East,17.3,25.3,N/A,,Mostly Cloudy,90,2012-05-12 18:43:00
2:53 PM,81.0,68.0,65,30.14,10.0,ENE,16.1,25.3,N/A,,Mostly Cloudy,70,2012-05-12 18:53:00
3:53 PM,82.9,68.0,60,30.12,10.0,East,18.4,25.3,N/A,,Partly Cloudy,90,2012-05-12 19:53:00
4:53 PM,82.0,69.1,65,30.11,10.0,East,17.3,-,N/A,,Mostly Cloudy,90,2012-05-12 20:53:00
5:53 PM,81.0,68.0,65,30.09,10.0,East,18.4,-,N/A,,Scattered Clouds,90,2012-05-12 21:53:00
6:53 PM,80.1,68.0,67,30.10,10.0,East,16.1,-,N/A,,Mostly Cloudy,100,2012-05-12 22:53:00
7:53 PM,79.0,68.0,69,30.10,10.0,East,12.7,-,N/A,,Scattered Clouds,100,2012-05-12 23:53:00
8:53 PM,79.0,68.0,69,30.10,10.0,East,12.7,-,N/A,,Scattered Clouds,90,2012-05-13 00:53:00
9:53 PM,78.1,68.0,71,30.12,10.0,East,11.5,-,N/A,,Scattered Clouds,90,2012-05-13 01:53:00
10:53 PM,78.1,66.9,68,30.12,10.0,ESE,13.8,-,N/A,,Partly Cloudy,110,2012-05-13 02:53:00
11:53 PM,78.1,66.9,68,30.11,10.0,ESE,15.0,-,N/A,,Mostly Cloudy,110,2012-05-13 03:53:00